GEFSCGP_con_probscp_246.txt.gz
Probability
0 0 0 0 0 0 0 0 0 0 0 0 0 1 2 3 6 9 11 12 12 11 10 12 17 21 22 21 20 15 10 7 5 4 3 1 0 1 2 3 3 3 3 3
0 0 0 0 0 0 0 0 0 0 0 0 0 0 1 3 6 8 10 12 13 14 15 18 20 22 22 21 20 15 9 7 6 6 4 2 0 1 2 2 3 3 3 3
0 0 0 0 0 0 0 0 0 0 0 0 1 1 2 4 5 7 9 10 13 18 22 24 25 23 22 21 19 15 11 9 8 8 7 4 2 3 3 3 3 3 3 4
0 0 0 0 0 0 0 0 0 0 0 0 0 1 2 4 6 8 8 8 13 21 26 28 28 27 24 21 18 15 12 10 9 8 7 6 5 6 6 6 5 4 4 5
0 0 0 0 0 0 0 0 0 0 0 0 0 0 1 2 7 9 7 8 13 21 27 31 32 32 30 24 19 16 13 12 10 8 7 6 7 7 8 8 7 5 4 5
0 0 0 0 0 0 0 0 0 0 0 0 0 0 0 1 4 7 7 8 12 19 26 31 33 34 34 28 22 18 17 15 12 10 7 7 7 7 7 8 8 6 5 5
0 0 0 0 0 0 0 0 0 0 0 0 0 0 0 0 2 5 7 10 12 16 21 27 30 32 32 30 25 21 20 17 14 12 10 8 7 7 7 7 7 7 6 6
0 0 0 0 0 0 0 0 0 0 0 0 0 0 1 2 2 4 7 11 13 14 18 23 27 29 30 29 27 23 21 19 17 17 16 12 9 8 8 7 7 8 9 9
0 0 0 0 0 0 0 0 0 0 0 0 0 1 3 4 4 5 8 11 13 15 18 23 26 27 29 31 29 27 25 24 23 23 23 20 16 13 12 10 9 9 11 12
0 0 0 0 0 0 0 0 0 0 0 0 0 1 3 5 7 8 11 13 13 14 18 24 27 27 28 30 30 31 32 30 28 28 28 26 23 19 16 14 12 11 13 15
0 0 0 0 0 0 0 0 0 0 0 0 0 1 3 6 9 12 13 13 14 16 19 25 29 27 26 28 31 36 38 37 34 33 32 30 26 23 21 19 16 14 14 16
0 0 0 0 0 0 0 0 0 0 0 0 0 1 4 7 10 13 14 14 16 19 22 25 29 29 26 29 36 41 44 44 40 37 36 34 31 27 25 24 22 19 16 15
0 0 0 0 0 0 0 0 0 0 0 0 1 3 6 8 10 13 16 16 17 21 25 27 30 32 32 34 40 44 46 45 42 39 38 38 36 32 30 29 27 23 19 16
0 0 0 0 0 0 0 0 0 0 0 0 1 4 7 9 11 15 18 17 18 22 27 30 34 36 36 37 39 41 42 42 41 39 38 38 37 35 33 32 29 25 20 17
0 0 0 0 0 0 0 0 0 0 0 0 1 4 6 9 13 17 19 20 22 26 31 34 38 38 37 35 36 37 39 39 38 37 36 35 34 33 33 32 30 25 20 17
0 0 0 0 0 0 0 0 0 0 0 0 1 3 7 11 16 19 20 22 25 28 31 33 35 36 36 34 33 34 35 36 35 34 33 31 29 30 31 31 30 24 19 17
0 0 0 0 0 0 0 0 0 0 0 1 2 6 11 15 19 21 21 23 25 26 26 27 28 30 33 33 32 32 32 32 31 30 27 24 25 29 31 31 30 26 20 17
0 0 0 0 0 0 0 0 0 0 1 3 6 11 15 18 20 22 23 24 24 23 22 22 22 25 29 31 32 33 33 31 28 24 20 20 24 28 31 32 32 28 22 17
0 0 0 0 0 0 0 0 0 0 2 4 8 13 15 16 18 20 22 22 21 20 19 20 21 25 29 31 32 32 32 29 24 20 18 20 24 27 30 31 30 26 21 19
0 0 0 0 0 0 0 1 1 2 3 5 7 10 12 12 14 16 17 19 18 16 16 19 23 25 29 31 31 30 30 27 22 18 18 20 23 25 26 27 25 22 19 18
0 0 0 0 0 0 0 1 2 2 4 5 6 8 9 10 11 12 15 17 18 17 18 21 23 23 24 27 28 28 27 25 21 18 18 21 23 23 22 22 22 21 20 18
0 0 0 0 0 0 0 0 1 1 3 5 7 9 9 9 10 12 15 18 18 19 20 21 22 20 20 21 23 23 22 21 21 20 20 21 21 21 21 21 22 22 21 20
0 0 0 0 0 0 0 0 0 0 1 4 7 9 10 10 10 12 14 15 14 15 18 20 20 20 19 19 20 19 18 18 20 21 21 19 17 17 18 19 20 22 22 21
0 0 0 0 0 0 0 0 0 0 1 4 7 9 10 10 9 10 12 12 11 12 15 16 18 19 20 19 18 17 17 18 19 20 18 14 11 11 12 13 14 17 18 18
0 0 0 0 0 0 0 0 0 0 1 4 8 9 9 8 7 8 10 11 12 13 14 14 16 17 18 18 17 16 16 17 17 16 14 10 7 6 6 6 7 9 10 10
0 0 0 0 0 0 0 0 0 0 1 5 9 10 9 7 6 7 9 12 13 13 13 14 14 15 16 16 15 14 14 14 13 13 12 8 5 4 3 3 3 3 4 4

GEFSCGP_con_probscp_252.txt.gz
Probability
0 0 0 0 0 0 0 0 0 0 1 2 2 1 1 2 3 2 1 0 0 0 0 1 1 0 0 0 0 0 0 1 3 3 2 1 0 0 1 1 1 1 0 0
0 0 0 0 0 0 0 0 0 0 0 1 1 0 1 1 2 1 0 0 0 0 0 2 2 1 0 0 1 1 1 2 3 2 1 0 0 0 1 2 2 2 1 1
0 0 0 0 0 0 0 0 0 0 0 0 0 0 1 1 1 1 0 0 0 0 0 1 3 3 1 1 2 2 3 3 3 2 1 1 1 1 2 3 3 3 3 2
0 0 0 0 0 0 0 0 0 0 0 0 0 0 1 1 1 0 0 1 1 1 1 2 3 5 5 5 4 4 3 3 2 2 2 3 3 2 3 3 3 3 3 3
0 0 0 0 0 0 0 0 0 0 0 0 0 0 0 0 0 0 0 1 2 4 4 4 4 6 9 10 9 5 3 2 1 1 3 4 4 3 3 3 3 3 3 3
0 0 0 0 0 0 0 0 0 0 0 0 0 0 0 0 0 1 1 1 2 5 7 7 7 8 10 13 12 8 3 1 0 0 1 3 3 3 2 3 3 3 3 3
0 0 0 0 0 0 0 0 0 0 0 0 0 0 0 1 1 2 2 1 1 3 6 9 10 10 11 13 13 10 6 3 2 1 2 2 3 2 2 2 3 3 3 4
0 0 0 0 0 0 0 0 0 0 0 0 0 0 1 2 3 4 5 4 2 3 6 9 11 13 13 13 14 13 10 8 6 5 4 3 2 1 1 1 2 3 4 5
0 0 0 0 0 0 0 0 0 0 0 0 0 0 1 3 4 6 8 7 5 5 7 8 9 11 12 12 14 15 15 13 11 10 8 7 5 3 2 2 2 3 4 5
0 0 0 0 0 0 0 0 0 0 0 0 0 0 1 3 5 7 9 9 8 8 9 8 7 9 10 10 12 15 17 16 16 15 13 12 11 9 7 6 5 5 5 4
0 0 0 0 0 0 0 0 0 0 0 0 0 1 2 4 5 7 8 9 8 9 9 9 8 9 10 11 13 16 18 18 19 19 17 16 15 13 12 10 9 8 7 5
0 0 0 0 0 0 0 0 0 0 0 0 1 2 3 4 5 6 8 8 7 8 9 10 10 10 13 17 18 19 20 20 22 23 22 21 19 19 19 19 17 15 12 10
0 0 0 0 0 0 0 0 0 0 0 1 2 3 3 4 4 6 8 8 8 8 9 11 12 14 18 21 22 22 23 23 25 28 29 27 26 27 30 30 25 21 17 14
0 0 0 0 0 0 0 0 0 0 0 1 2 2 1 2 4 6 8 9 9 9 10 11 13 16 19 21 21 23 25 26 27 29 32 32 31 33 34 32 27 22 18 17
0 0 0 0 0 0 0 0 0 0 0 1 2 1 0 2 5 8 9 11 11 10 10 10 12 14 16 18 20 22 23 25 27 28 31 32 32 32 31 28 24 21 19 19
0 0 0 0 0 0 0 0 0 0 0 2 2 1 1 4 8 11 12 14 14 12 10 9 10 11 11 14 18 20 21 23 25 25 26 26 26 27 26 24 22 21 21 21
0 0 0 0 0 0 0 0 0 0 0 1 1 2 5 9 12 13 13 14 15 14 11 10 11 11 10 11 14 17 19 20 20 20 20 20 21 22 22 20 18 20 21 20
0 0 0 0 0 0 0 0 0 0 0 1 1 4 8 11 11 11 11 12 13 13 11 10 10 10 9 10 11 13 15 16 17 17 16 16 17 18 18 17 16 17 18 17
0 0 0 0 0 0 0 0 0 0 1 2 2 4 7 8 8 8 9 10 10 11 10 8 7 7 6 7 8 10 11 13 14 14 13 13 14 16 17 17 15 15 16 15
0 0 0 0 0 0 0 0 0 0 1 1 3 4 5 4 5 6 8 10 10 9 8 6 6 5 5 6 7 8 9 10 10 10 10 11 12 14 16 16 16 16 16 14
0 0 0 0 0 0 0 0 0 0 0 0 1 3 3 3 4 5 8 10 10 9 7 6 6 6 7 6 7 7 7 7 8 8 10 11 12 12 13 15 15 16 16 15
0 0 0 0 0 0 0 0 0 0 0 0 0 2 4 4 5 6 8 9 9 9 8 6 6 7 8 8 9 9 8 8 9 11 11 11 11 11 12 12 13 14 15 15
0 0 0 0 0 0 0 0 0 0 0 0 1 3 4 4 5 6 7 7 8 8 8 7 7 8 9 9 10 11 11 11 12 12 12 11 10 11 12 12 11 11 11 12
0 0 0 0 0 0 0 0 0 0 0 0 1 3 3 3 2 4 6 6 7 7 7 7 7 7 8 9 11 12 12 13 12 12 11 10 11 12 13 13 12 10 9 9
0 0 0 0 0 0 0 0 0 0 0 0 1 2 2 1 1 3 5 6 6 6 6 6 6 6 6 8 11 11 11 11 12 11 10 10 11 11 11 10 9 9 8 7
0 0 0 0 0 0 0 0 0 0 0 0 0 1 1 0 0 2 4 5 5 4 4 5 6 6 6 7 9 9 8 10 12 12 10 10 10 9 8 7 6 6 7 7

GEFSCGP_con_probscp_258.txt.gz
Probability
0 0 0 0 0 0 0 0 0 0 0 0 0 1 1 1 1 2 4 4 1 0 0 1 2 2 1 0 0 0 0 1 1 0 0 1 2 2 2 2 1 0 0 0
0 0 0 0 0 0 0 0 0 0 0 0 0 0 1 2 2 3 3 3 3 2 2 2 3 3 2 1 0 0 0 2 2 1 1 2 3 2 2 1 0 0 0 0
0 0 0 0 0 0 0 0 0 0 0 0 0 0 1 2 3 2 2 3 5 7 7 7 6 4 3 2 1 1 1 3 4 4 3 3 3 1 1 0 0 0 0 0
0 0 0 0 0 0 0 0 0 0 0 0 0 0 1 2 2 3 3 5 7 10 11 11 10 7 5 3 2 2 4 5 6 6 5 3 1 0 0 1 2 2 1 1
0 0 0 0 0 0 0 0 0 0 0 0 0 0 0 1 1 2 4 5 6 10 12 11 10 8 6 3 2 5 9 10 9 10 9 6 3 2 3 4 4 4 4 3
0 0 0 0 0 0 0 0 0 0 0 0 0 0 0 0 0 1 2 4 6 10 13 11 9 9 8 6 5 8 14 15 14 13 12 10 8 6 6 6 7 6 5 5
0 0 0 0 0 0 0 0 0 0 0 0 0 0 0 0 0 0 1 4 7 9 12 12 11 11 11 10 10 12 16 19 18 15 13 12 12 10 9 9 8 7 6 6
0 0 0 0 0 0 0 0 0 0 0 0 0 0 0 0 0 0 1 4 7 9 10 14 15 13 13 14 14 15 19 22 21 18 17 17 16 13 13 13 10 7 7 7
0 0 0 0 0 0 0 0 0 0 0 0 0 0 0 1 0 0 1 4 7 10 12 15 17 16 14 14 15 17 22 26 25 23 22 21 19 18 17 16 13 10 11 12
0 0 0 0 0 0 0 0 0 0 0 0 0 0 1 1 1 1 2 4 7 11 13 16 20 20 17 16 16 18 22 26 27 26 25 23 22 23 23 21 19 18 20 21
0 0 0 0 0 0 0 0 0 0 0 0 0 1 2 2 2 3 3 5 8 10 11 15 21 25 24 21 20 22 23 25 27 27 27 26 25 26 26 26 26 27 29 30
0 0 0 0 0 0 0 0 0 0 0 0 0 1 2 3 3 4 6 8 9 11 12 15 20 26 27 25 24 25 26 26 28 28 28 28 27 27 28 29 30 32 33 33
0 0 0 0 0 0 0 0 0 0 0 0 0 0 1 1 3 5 8 10 11 13 16 18 21 25 28 27 27 26 26 27 30 29 29 30 30 30 29 29 32 35 36 36
0 0 0 0 0 0 0 0 0 0 0 0 0 0 0 1 4 6 8 10 12 16 21 24 25 28 32 33 31 29 28 31 33 32 32 34 34 34 33 34 38 42 42 40
0 0 0 0 0 0 0 0 0 0 0 0 0 0 1 4 6 8 10 12 15 19 25 28 30 34 39 41 40 36 34 36 37 37 39 41 41 40 41 42 44 47 46 43
0 0 0 0 0 0 0 0 0 0 0 0 0 1 3 7 10 13 17 19 21 22 24 28 32 38 42 45 47 44 40 39 40 41 43 46 47 47 47 48 49 50 47 44
0 0 0 0 0 0 0 0 0 1 1 1 1 2 6 11 13 16 19 23 24 23 22 24 30 35 39 41 45 45 41 38 39 41 43 46 49 49 48 49 50 51 49 46
0 0 0 0 0 0 0 0 0 1 2 2 2 4 8 13 16 16 16 18 20 20 19 19 23 28 30 32 36 38 35 32 33 36 39 43 46 47 46 46 47 48 47 45
0 0 0 0 0 0 0 0 1 1 3 3 4 6 9 13 15 14 13 14 16 18 16 15 16 18 21 23 26 29 28 26 25 28 34 38 40 42 43 44 43 43 43 42
0 0 0 0 0 0 0 1 1 1 3 4 6 8 10 13 13 14 13 13 15 16 14 13 13 13 16 20 24 25 25 24 22 23 28 31 33 36 39 41 41 40 39 38
0 0 0 0 0 0 0 1 2 2 4 6 7 9 11 14 14 14 13 13 14 14 14 15 15 14 15 21 26 26 24 23 23 22 23 25 27 29 32 35 38 38 36 34
0 0 0 0 0 1 2 3 4 5 6 7 8 9 11 14 14 12 11 12 12 12 14 16 16 15 17 21 26 28 26 24 24 22 20 21 22 23 25 29 33 35 34 32
0 0 1 1 1 2 4 6 7 7 9 10 9 9 10 11 11 10 9 9 9 10 12 15 15 17 19 20 22 25 25 25 25 23 20 20 21 21 23 27 30 32 33 33
1 1 2 2 2 3 4 5 5 6 7 9 8 8 8 8 9 8 7 6 6 6 10 13 15 18 19 19 20 21 21 22 23 22 21 20 22 23 26 28 28 29 31 32
2 2 2 2 2 2 3 2 2 3 4 5 5 6 5 5 6 7 7 6 5 6 8 11 14 16 18 18 19 20 19 19 20 21 21 21 21 23 25 25 24 23 24 24
1 1 1 1 1 2 3 1 1 2 2 3 4 5 5 4 5 6 8 8 6 6 8 9 11 13 15 17 19 20 19 19 20 21 22 21 19 21 23 21 18 17 17 16

GEFSCGP_con_probscp_264.txt.gz
Probability
0 0 0 0 0 0 0 0 0 0 0 0 0 0 0 0 2 8 13 17 20 21 19 18 19 23 29 32 32 29 22 18 15 13 12 11 10 12 15 16 14 10 6 5
0 0 0 0 0 0 0 0 0 0 0 0 0 0 0 0 2 7 13 18 22 24 23 22 21 24 30 34 34 30 26 21 17 14 12 11 10 11 14 16 14 9 6 4
0 0 0 0 0 0 0 0 0 0 0 0 0 0 0 0 1 5 10 16 23 26 27 25 24 26 32 35 34 30 29 27 23 18 13 10 9 9 11 14 14 10 7 4
0 0 0 0 0 0 0 0 0 0 0 0 0 0 0 0 0 2 5 12 20 25 27 26 26 28 31 33 31 31 33 33 31 24 16 11 10 9 9 12 15 14 10 7
0 0 0 0 0 0 0 0 0 0 0 0 0 0 0 0 0 0 3 8 15 23 27 27 27 29 29 28 30 33 36 37 36 30 21 16 13 11 11 13 16 17 15 12
0 0 0 0 0 0 0 0 0 0 0 0 0 0 0 0 0 1 2 6 12 20 27 30 32 33 30 27 30 36 39 41 39 34 27 21 18 15 14 15 16 16 16 16
0 0 0 0 0 0 0 0 0 0 0 0 0 0 0 0 1 2 2 5 11 18 23 30 36 38 36 33 33 38 42 44 42 37 31 26 23 20 17 17 17 15 14 14
0 0 0 0 0 0 0 0 0 0 0 0 0 0 0 0 1 2 3 7 11 15 19 27 35 40 39 37 38 41 47 49 46 42 39 34 30 25 21 20 18 15 14 14
0 0 0 0 0 0 0 0 0 0 0 0 0 0 0 1 2 2 4 8 11 14 18 25 33 37 37 37 39 45 54 57 55 51 45 41 37 30 24 21 19 17 16 16
0 0 0 0 0 0 0 0 0 1 1 0 0 0 1 3 4 4 6 9 12 16 19 24 29 31 32 34 38 47 57 62 61 56 48 43 41 37 29 23 20 19 20 20
0 0 0 0 0 0 0 0 0 0 1 1 1 1 3 5 6 7 9 12 15 18 20 22 24 24 26 31 37 45 55 61 61 57 50 46 45 44 38 29 24 23 24 25
0 0 0 0 0 0 0 0 0 0 1 2 2 3 5 7 9 10 12 15 16 17 19 20 21 22 25 31 38 44 50 55 57 55 54 52 50 47 42 36 32 31 30 29
0 0 0 0 0 0 0 0 0 0 0 1 1 3 7 10 12 13 15 17 16 16 19 22 25 28 31 36 44 48 49 49 51 54 55 54 52 48 43 41 42 41 39 37
0 0 0 0 0 0 0 0 0 0 0 0 0 3 7 11 13 15 17 20 19 18 20 26 32 37 41 46 50 52 51 48 49 53 54 53 51 49 48 49 50 50 48 46
0 0 0 0 0 0 0 0 0 0 0 0 0 3 7 10 14 18 20 21 21 20 22 28 36 43 49 52 52 53 55 54 54 55 56 54 52 51 54 56 57 55 51 49
0 0 0 0 0 0 0 0 0 0 0 0 2 5 8 11 16 19 21 21 22 23 26 31 38 46 54 55 54 56 60 62 61 60 58 56 54 53 55 58 58 55 53 51
1 1 0 0 0 0 0 0 0 0 0 1 4 8 11 15 19 21 20 21 24 26 29 32 39 48 56 57 59 62 67 68 66 62 59 57 55 54 54 55 56 55 56 56
2 2 1 0 0 0 0 0 0 0 0 1 5 9 12 16 22 23 22 24 28 30 31 33 36 42 51 56 59 62 66 68 65 61 58 55 53 52 52 52 54 56 56 57
2 2 1 0 0 0 0 0 0 1 2 3 7 10 11 15 21 24 26 28 31 34 37 36 33 35 44 53 55 55 59 61 59 57 55 53 51 51 50 50 53 54 55 56
1 1 0 0 0 0 0 1 0 1 4 7 10 13 14 17 22 28 29 30 33 37 41 39 33 34 43 51 52 51 52 54 53 51 50 51 51 52 52 53 54 53 52 52
0 0 1 1 1 1 1 2 4 8 11 13 16 19 22 25 30 34 33 32 34 37 37 35 35 39 46 50 52 52 52 51 49 47 47 50 52 51 52 57 58 54 51 50
1 1 2 3 3 4 5 6 11 18 20 19 19 22 27 30 32 34 34 34 34 35 32 31 36 43 49 50 51 53 53 51 48 47 49 52 53 50 50 58 60 56 52 50
2 2 4 5 6 7 9 10 14 19 21 19 18 20 24 26 26 28 30 32 33 32 30 31 35 42 47 48 50 54 55 53 49 50 54 55 55 53 56 60 57 52 49 46
1 2 3 6 7 8 8 9 10 12 13 13 13 15 19 21 21 24 28 30 30 30 29 31 33 37 41 44 47 52 56 56 52 52 55 54 51 52 58 60 52 45 42 40
1 1 3 7 9 8 7 6 6 6 6 6 9 12 15 18 19 22 27 30 31 30 29 29 30 32 36 39 42 47 54 57 53 50 48 44 39 41 48 51 44 37 32 29
1 2 3 7 11 10 6 5 4 3 2 4 8 11 13 16 18 20 26 31 32 31 30 30 29 30 33 36 39 44 52 56 53 47 42 35 30 33 39 41 37 28 22 19

GEFSCGP_con_probscp_270.txt.gz
Probability
0 0 0 0 0 0 0 0 0 0 0 0 0 0 2 3 6 10 14 16 15 13 13 14 15 15 15 12 9 8 6 5 6 6 5 4 3 2 1 0 0 0 0 0
0 0 0 0 0 0 0 0 0 0 0 0 0 0 2 3 5 9 15 18 17 15 14 14 15 17 18 16 12 9 7 7 8 7 5 3 3 1 0 0 0 0 0 0
0 0 0 0 0 0 0 0 0 0 0 0 0 0 1 3 3 6 12 17 18 17 16 15 16 18 21 21 16 11 9 9 10 9 6 5 3 2 1 0 1 1 1 1
0 0 0 0 0 0 0 0 0 0 0 0 0 0 1 2 3 4 8 13 17 18 18 18 17 18 21 24 21 14 11 12 12 10 9 7 5 3 1 1 1 2 2 2
0 0 0 0 0 0 0 0 0 0 0 0 0 0 1 3 4 5 8 12 16 18 22 23 22 21 22 25 25 20 16 15 14 11 9 8 6 3 1 0 1 2 3 3
0 0 0 0 0 0 0 0 0 0 0 0 0 0 1 3 5 8 11 15 17 20 24 27 27 26 25 24 25 24 22 20 16 11 8 6 4 2 0 0 1 3 4 4
0 0 0 0 0 0 0 0 0 0 0 0 0 0 1 3 5 9 14 17 19 21 24 27 28 27 26 24 23 24 25 23 19 13 8 6 5 3 1 1 3 4 5 6
0 0 0 0 0 0 0 0 0 0 0 0 0 1 2 3 4 7 13 18 20 20 22 23 23 23 24 24 25 27 29 28 24 18 12 10 9 7 4 3 4 5 6 7
0 0 0 0 0 0 0 0 0 0 0 0 0 1 2 2 3 6 12 17 19 18 18 18 18 18 20 23 27 32 33 31 29 24 19 16 15 12 8 6 6 7 7 7
0 0 0 0 0 0 0 0 0 0 0 0 0 1 1 2 5 8 12 17 19 19 17 16 16 17 19 23 28 33 34 32 31 29 25 21 18 17 15 11 9 9 8 8
0 0 0 0 0 0 0 0 0 0 0 0 0 0 0 2 7 12 16 19 21 21 20 19 18 20 23 24 26 29 31 31 32 32 30 26 22 21 19 15 12 11 11 10
0 0 0 0 0 0 0 0 0 0 0 0 0 0 0 2 7 14 19 22 22 22 22 22 22 23 24 25 24 25 27 30 32 33 32 30 27 24 22 18 17 16 14 13
0 0 0 0 0 0 0 0 0 0 0 0 0 0 1 4 7 13 19 21 21 22 23 23 23 24 24 22 22 24 26 29 31 33 32 31 29 28 26 24 23 22 20 18
0 0 0 0 0 0 0 0 0 0 0 0 0 0 1 4 7 12 16 18 20 22 23 22 23 23 22 19 19 23 27 30 32 33 31 30 30 30 30 28 26 24 23 21
0 0 0 0 0 0 0 0 0 0 0 1 2 2 2 5 9 13 16 18 21 22 23 23 23 23 20 19 19 21 26 29 31 31 30 29 32 34 33 29 26 24 22 21
0 0 0 0 0 0 0 0 0 0 1 3 5 4 4 8 13 16 17 19 21 24 26 26 24 23 21 19 20 22 24 26 27 27 27 28 33 37 35 30 26 23 22 23
0 0 0 0 0 0 0 0 0 1 2 4 6 5 7 13 18 17 15 17 20 23 26 25 23 22 21 18 19 20 21 22 24 24 25 27 31 35 34 30 27 24 23 24
0 0 0 0 0 0 0 0 0 2 3 4 5 7 8 13 17 15 12 13 16 20 22 22 20 20 20 17 16 16 16 16 19 20 22 25 27 27 28 27 25 22 21 21
0 0 0 0 0 0 0 0 0 2 3 3 5 8 9 11 14 12 9 10 13 16 19 20 20 19 18 17 15 13 11 11 12 14 18 22 23 22 23 23 22 20 20 19
0 0 0 0 0 0 0 0 0 1 2 3 5 9 11 11 11 9 8 10 12 14 16 19 21 20 20 19 17 13 10 9 8 9 13 17 19 19 20 21 21 20 20 20
0 0 0 0 0 0 1 1 0 0 1 2 5 9 11 11 9 8 9 11 12 14 15 17 19 20 20 20 18 13 10 8 7 7 9 11 14 17 18 18 18 18 18 17
0 0 0 0 0 1 2 2 1 0 1 2 4 7 9 9 9 8 10 12 13 14 15 15 15 14 15 16 15 12 8 6 5 5 6 8 11 14 15 13 13 13 13 13
1 1 1 1 1 1 2 2 1 1 2 3 4 5 7 8 8 8 10 12 13 14 14 13 12 10 9 10 10 9 7 6 6 6 6 7 9 11 11 11 10 10 11 11
2 2 2 2 2 1 1 1 0 1 2 3 3 4 5 6 7 8 9 10 11 12 12 11 10 8 7 7 7 7 8 8 9 8 6 6 7 8 8 7 8 9 10 9
1 2 2 2 1 1 0 0 0 1 3 4 4 4 5 6 6 7 8 9 9 10 10 10 9 7 6 6 6 6 7 8 8 8 6 5 4 4 3 3 3 5 6 6
0 1 1 1 0 0 0 0 1 3 5 6 5 5 5 6 6 7 7 8 8 9 9 10 9 7 6 6 6 6 5 5 6 6 5 4 3 2 2 1 1 2 2 2

GEFSCGP_con_probscp_276.txt.gz
Probability
0 0 0 0 0 0 0 0 0 0 0 0 0 0 0 0 0 0 0 1 3 4 5 5 5 4 3 2 2 2 2 1 0 0 0 0 0 0 0 0 0 0 0 0
0 0 0 0 0 0 0 0 0 0 0 0 0 0 0 0 0 0 0 1 4 6 7 7 7 5 4 2 2 1 1 0 0 0 0 0 0 0 0 0 0 0 0 0
0 0 0 0 0 0 0 0 0 0 0 0 0 0 0 0 0 0 0 1 4 7 10 10 9 7 4 3 3 2 1 0 0 0 0 0 0 0 0 0 0 0 0 0
0 0 0 0 0 0 0 0 0 0 0 0 0 0 0 0 0 0 0 0 2 6 9 10 10 8 5 4 3 3 2 1 1 0 0 0 0 0 0 0 0 0 0 0
0 0 0 0 0 0 0 0 0 0 0 0 0 0 0 0 0 0 0 0 1 3 6 9 10 9 7 6 5 4 4 3 2 0 0 0 0 0 0 0 0 0 0 0
0 0 0 0 0 0 0 0 0 0 0 0 0 0 0 0 0 0 0 0 1 2 5 9 11 11 10 9 8 7 7 5 2 0 0 0 0 0 0 0 0 0 0 0
0 0 0 0 0 0 0 0 0 0 0 0 0 0 0 0 0 0 0 1 2 3 5 8 11 12 12 12 11 9 9 8 5 2 1 1 1 0 0 0 0 0 0 0
0 0 0 0 0 0 0 0 0 0 0 0 0 0 1 1 1 0 0 1 2 3 4 7 10 12 13 14 12 11 11 11 9 7 6 5 3 2 1 1 1 1 1 0
0 0 0 0 0 0 0 0 0 0 0 0 0 0 1 1 1 1 1 1 1 1 3 5 8 9 11 12 12 11 10 11 12 14 14 11 8 6 4 3 3 2 2 1
0 0 0 0 0 0 0 0 0 0 0 0 0 0 0 1 1 2 2 2 2 2 3 4 5 6 7 8 10 11 11 10 13 17 18 16 13 11 9 7 4 3 2 1
0 0 0 0 0 0 0 0 0 0 0 0 0 0 0 1 1 2 3 3 2 3 3 4 5 6 6 8 10 11 12 12 14 17 19 19 18 17 15 12 8 6 4 3
0 0 0 0 0 0 0 0 0 0 0 0 0 0 0 0 0 1 3 3 2 2 2 4 8 9 10 12 12 11 11 12 14 17 19 20 19 19 18 14 10 9 8 7
0 0 0 0 0 0 0 0 0 0 0 0 0 0 0 0 0 1 3 4 3 2 2 6 10 12 13 13 12 11 10 10 11 13 15 15 15 15 15 11 8 8 9 9
0 0 0 0 0 0 0 0 0 0 0 0 0 0 0 0 0 1 3 5 6 5 5 9 11 12 11 11 11 11 11 11 11 11 10 9 8 10 11 10 8 7 8 10
0 0 0 0 0 0 0 0 0 0 0 0 0 0 0 1 1 2 4 9 11 10 9 11 13 13 11 10 10 11 11 12 12 10 8 6 6 7 9 11 11 10 10 11
0 0 0 0 0 0 0 0 0 0 0 0 0 0 1 3 4 5 7 12 15 14 12 12 13 14 13 11 9 9 10 10 10 10 9 8 6 6 7 10 12 12 11 12
0 0 0 0 0 0 0 0 0 0 0 0 0 1 3 5 6 6 9 12 13 14 13 12 11 11 13 10 7 7 9 10 11 11 11 11 9 8 8 10 12 12 11 11
0 0 0 0 0 0 0 0 0 0 0 0 0 2 4 5 4 4 6 9 9 10 12 10 8 9 9 8 6 7 10 12 13 13 13 14 12 11 11 11 11 10 10 10
0 0 0 0 0 0 0 0 0 0 0 0 2 4 4 4 3 3 3 4 6 7 8 7 6 6 5 4 5 8 11 13 13 14 13 12 11 11 10 10 9 8 8 9
0 0 0 0 0 0 0 0 0 0 0 1 3 4 4 3 3 3 2 3 4 4 5 6 5 4 2 2 4 8 10 11 12 12 11 10 9 8 7 8 8 7 8 9
0 0 0 0 0 0 0 0 0 0 0 1 3 3 3 3 4 4 4 5 5 5 5 6 4 2 1 1 3 7 8 7 8 8 8 7 6 6 5 5 5 6 6 7
0 0 0 0 0 0 0 0 0 0 1 2 3 3 3 4 5 6 6 7 7 6 6 6 5 4 3 3 4 5 5 4 4 5 5 4 4 4 3 3 3 4 4 5
0 0 0 0 0 0 0 0 0 1 1 2 3 3 4 4 5 6 7 7 7 6 7 8 7 6 6 5 5 4 3 3 3 4 3 3 3 3 3 3 3 3 3 4
0 0 0 0 0 0 0 0 0 1 1 1 1 2 2 2 3 5 6 8 8 7 7 8 7 6 6 6 6 4 2 3 4 4 4 3 3 3 3 3 2 2 2 2
0 0 0 0 0 0 0 0 0 0 0 0 0 0 0 0 1 3 5 7 8 7 7 7 6 5 5 5 4 2 1 1 3 4 4 3 2 2 2 1 1 1 1 1
0 0 0 0 0 0 0 0 0 0 0 0 0 0 0 0 1 3 5 6 7 7 7 6 5 4 4 4 2 1 0 0 1 3 4 2 1 1 1 0 0 0 0 0